[ hide orbit diagram ]
For accurate long-term ephemerides, please instead use our Horizons system.This orbit viewer was implemented using two-body methods, and hence should not be used for determining accurate long-term trajectories (over several years or decades) or planetary encounter circumstances.
[ revert to old Java-based viewer ]
Orbital Elements at Epoch 2458600.5 (2019-Apr-27.0) TDB
Reference: JPL 15 (heliocentric ecliptic J2000)
Element | Value | Uncertainty (1-sigma) | Units |
e | .02257388376609444 | 5.3818e-08 | |
a | 2.807999412444673 | 3.1774e-08 | au |
q | 2.744611960092886 | 1.4902e-07 | au |
i | 6.048249191074865 | 7.3746e-06 | deg |
node | 198.632080078433 | 5.3722e-05 | deg |
peri | 109.9992809411211 | 0.00019033 | deg |
M | 51.80450093768204 | 0.00018025 | deg |
tp | 2458353.180170042360 (2018-Aug-22.68017004) | 0.00086116 | TDB |
period | 1718.675736146067 4.71 | 2.9171e-05 7.987e-08 | d yr |
n | .2094635959702665 | 3.5552e-09 | deg/d |
Q | 2.871386864796461 | 3.2491e-08 | au |
|
| | Orbit Determination Parameters
Additional Information
|
[ show covariance matrix ]
Physical Parameter Table
Parameter |
Symbol |
Value |
Units |
Sigma |
Reference |
Notes |
absolute magnitude |
H |
16.5 |
|
n/a |
MPO455945 |
|
|
413591 (2005 UX104) Discovered 2005-Oct-22 by Spacewatch at Kitt Peak |
Reference: | Last Updated: 2014-11-10 |
|
|